ORBCOMM-X 1 21576U 91050C 25348.13511151 .00000471 00000+0 15196-3 0 9992 2 21576 98.3229 50.8791 0003772 21.3101 338.8246 14.43436957808076 ORBCOMM FM01 1 23545U 95017A 25348.29406835 .00008925 00000+0 86191-3 0 9991 2 23545 69.9632 344.1433 0003836 337.8477 22.2513 14.93115685639362 ORBCOMM FM02 1 23546U 95017B 25348.30031432 .00011183 00000+0 10354-2 0 9998 2 23546 69.9647 2.7464 0004952 354.4379 5.6722 14.94691938639038 ORBCOMM FM08 1 25112U 97084A 25348.07101101 .00001982 00000+0 58375-3 0 9992 2 25112 45.0118 223.8889 0006652 75.6480 284.5110 14.46600219467417 ORBCOMM FM10 1 25113U 97084B 25348.01110901 .00001745 00000+0 52169-3 0 9997 2 25113 45.0133 226.8902 0005385 40.9312 319.1943 14.46346539642545 ORBCOMM FM11 1 25114U 97084C 25348.04739306 .00001923 00000+0 57362-3 0 9995 2 25114 45.0120 227.6821 0006187 42.9136 317.2197 14.46088894467506 ORBCOMM FM12 1 25115U 97084D 25348.07640317 .00001802 00000+0 54010-3 0 9995 2 25115 45.0124 227.2742 0005316 40.0932 320.0311 14.46112142467307 ORBCOMM FM09 1 25116U 97084E 25348.05660011 .00001511 00000+0 46076-3 0 9997 2 25116 45.0128 228.4980 0006544 30.0382 330.0844 14.45951585467506 ORBCOMM FM05 1 25117U 97084F 25348.16096402 .00001779 00000+0 52694-3 0 9996 2 25117 45.0130 223.4898 0002945 40.2647 319.8422 14.46712080466660 ORBCOMM FM06 1 25118U 97084G 25348.09513656 .00001996 00000+0 58442-3 0 9992 2 25118 45.0119 223.3285 0001878 37.5265 116.4626 14.46875476467573 ORBCOMM FM07 1 25119U 97084H 25347.93987570 .00001902 00000+0 55865-3 0 9998 2 25119 45.0118 224.8250 0003777 36.5544 323.5565 14.46885357467549 ORBCOMM FM03 1 25158U 98007B 25348.35993565 .00001483 00000+0 55902-3 0 9991 2 25158 107.9632 145.8279 0046619 291.9389 67.6800 14.35030653449884 ORBCOMM FM04 1 25159U 98007C 25348.31337815 .00001659 00000+0 61822-3 0 9991 2 25159 107.9624 149.0759 0042453 289.3035 70.3517 14.35276930450064 ORBCOMM FM17 1 25413U 98046A 25348.11956862 .00001380 00000+0 52358-3 0 9999 2 25413 44.9929 128.1577 0001879 57.6884 302.4145 14.35539954429022 ORBCOMM FM18 1 25414U 98046B 25348.18545172 .00001638 00000+0 56981-3 0 9997 2 25414 44.9932 40.3442 0003167 138.0590 222.0502 14.39159393430174 ORBCOMM FM19 1 25415U 98046C 25348.31154274 .00001585 00000+0 55485-3 0 9991 2 25415 44.9944 42.0202 0001993 146.7471 301.7523 14.38979214430146 ORBCOMM FM20 1 25416U 98046D 25348.19951549 .00001298 00000+0 47489-3 0 9994 2 25416 44.9949 48.5123 0001862 222.0498 138.0207 14.37668291430168 ORBCOMM FM16 1 25417U 98046E 25348.32055774 .00001654 00000+0 57035-3 0 9999 2 25417 44.9941 37.0460 0003656 159.4290 200.6707 14.39537064430205 ORBCOMM FM15 1 25418U 98046F 25348.20340953 .00001590 00000+0 55410-3 0 9997 2 25418 44.9970 43.2972 0003505 160.9139 199.1841 14.39165667430170 ORBCOMM FM14 1 25419U 98046G 25348.24256111 .00001580 00000+0 54640-3 0 9997 2 25419 44.9959 40.7995 0002328 173.5931 186.4948 14.39584482430152 ORBCOMM FM13 1 25420U 98046H 25348.24172999 .00001445 00000+0 51776-3 0 9997 2 25420 44.9982 50.6060 0003685 125.8757 234.2434 14.38201631429157 ORBCOMM FM21 1 25475U 98053A 25348.15384490 .00001313 00000+0 47861-3 0 9990 2 25475 45.0068 136.9729 0001261 95.0263 265.0729 14.37797527423147 ORBCOMM FM22 1 25476U 98053B 25348.12294753 .00001393 00000+0 49328-3 0 9998 2 25476 45.0053 130.4423 0002501 71.4047 288.7073 14.38970375423181 ORBCOMM FM23 1 25477U 98053C 25348.12875200 .00001294 00000+0 47013-3 0 9990 2 25477 45.0068 138.9295 0002013 69.2008 290.9055 14.38035087423297 ORBCOMM FM24 1 25478U 98053D 25348.13199811 .00001489 00000+0 52735-3 0 9992 2 25478 45.0054 135.5731 0001824 84.9570 275.1487 14.38658429423350 ORBCOMM FM25 1 25479U 98053E 25348.10707058 .00001588 00000+0 55960-3 0 9991 2 25479 45.0057 133.9898 0004263 82.1515 277.9818 14.38625435423640 ORBCOMM FM26 1 25480U 98053F 25348.10186189 .00001387 00000+0 50480-3 0 9998 2 25480 45.0053 131.8176 0006272 94.6866 265.4698 14.37598568423534 ORBCOMM FM27 1 25481U 98053G 25348.09066739 .00001699 00000+0 59522-3 0 9997 2 25481 45.0030 134.2012 0001140 140.3870 219.7062 14.38660443423573 ORBCOMM FM28 1 25482U 98053H 25348.31634160 .00001433 00000+0 50791-3 0 9997 2 25482 45.0059 70.4066 0004411 148.9022 211.2088 14.38791509424295 ORBCOMM FM30 1 25980U 99065A 25348.27968474 .00001352 00000+0 49177-3 0 9993 2 25980 45.0324 317.0066 0006118 210.9999 149.0489 14.37768239360365 ORBCOMM FM31 1 25981U 99065B 25348.33087030 .00001345 00000+0 49016-3 0 9995 2 25981 45.0236 310.2174 0004548 244.9806 115.0571 14.37695237359924 ORBCOMM FM32 1 25982U 99065C 25348.14864495 .00001342 00000+0 49844-3 0 9999 2 25982 45.0168 328.8618 0006851 230.5677 129.4565 14.36752443360479 ORBCOMM FM33 1 25983U 99065D 25348.03011189 .00001316 00000+0 45375-3 0 9998 2 25983 45.0270 223.6242 0007806 253.3186 106.6807 14.40532562361995 ORBCOMM FM36 1 25984U 99065E 25348.29603452 .00001672 00000+0 58598-3 0 9993 2 25984 45.0391 317.0177 0000833 147.5026 212.5874 14.38717253360354 ORBCOMM FM35 1 25985U 99065F 25348.33864190 .00001453 00000+0 52658-3 0 9995 2 25985 45.0406 323.3152 0004673 245.4486 114.5876 14.37623565360702 ORBCOMM FM34 1 25986U 99065G 25348.30530391 .00001342 00000+0 49036-3 0 9999 2 25986 45.0400 323.9414 0003049 202.0999 157.9719 14.37573818360812 ORBCOMM FM38 1 33060U 08031A 25348.26321937 .00002431 00000+0 32787-3 0 9998 2 33060 48.4377 176.5342 0004402 103.2465 256.8943 14.82270574941456 ORBCOMM FM41 1 33061U 08031B 25348.07572573 .00002302 00000+0 31510-3 0 9992 2 33061 48.4412 185.8462 0003546 84.6597 58.8178 14.81825839940907 ORBCOMM FM29 1 33062U 08031C 25348.32015071 .00002346 00000+0 31957-3 0 9999 2 33062 48.4368 192.2480 0005254 83.8926 85.9934 14.81974175940858 ORBCOMM FM39 1 33063U 08031D 25348.02866364 .00002108 00000+0 30054-3 0 9999 2 33063 48.4386 219.9481 0006244 49.0684 311.0771 14.80413136940432 ORBCOMM FM37 1 33064U 08031E 25348.34305110 .00002030 00000+0 28916-3 0 9990 2 33064 48.4375 206.6925 0004769 72.2545 97.8118 14.80611808940734 ORBCOMM FM40 1 33065U 08031F 25348.30528674 .00002648 00000+0 34775-3 0 9994 2 33065 48.4391 187.7548 0005782 90.3946 79.4864 14.83117155940884 VESSELSAT 1 1 37840U 11058C 25348.31378109 .00000399 00000+0 73161-4 0 9993 2 37840 19.9619 83.8995 0013732 8.6160 351.4479 14.11399148731788 ORBCOMM FM109 1 40086U 14040A 25348.16594614 .00000967 00000+0 24234-3 0 9994 2 40086 47.0029 246.0777 0001139 76.9869 283.1144 14.58547557607337 ORBCOMM FM107 1 40087U 14040B 25348.11665873 .00000953 00000+0 23887-3 0 9994 2 40087 47.0044 247.1990 0001159 357.1305 2.9574 14.58623178607401 ORBCOMM FM106 1 40088U 14040C 25348.31593225 .00001442 00000+0 26869-3 0 9995 2 40088 47.0602 53.8176 0016712 187.7834 172.2800 14.70035386609974 ORBCOMM FM111 1 40089U 14040D 25348.09767848 .00003899 00000+0 44328-3 0 9993 2 40089 47.0000 240.2717 0028936 333.8881 26.0556 14.87733290617001 ORBCOMM FM104 1 40090U 14040E 25348.23518386 .00000893 00000+0 23404-3 0 9995 2 40090 47.0057 282.4270 0016944 307.1886 52.7452 14.57010823606873 ORBCOMM FM103 1 40091U 14040F 25348.16755577 .00000884 00000+0 22473-3 0 9998 2 40091 47.0050 247.6183 0001726 7.0483 353.0427 14.58537417590374 ORBCOMM FM114 1 41179U 15081A 25347.91031179 .00000871 00000+0 22185-3 0 9995 2 41179 47.0031 157.7890 0001805 72.2235 287.8848 14.58557760530709 ORBCOMM FM119 1 41180U 15081B 25348.31742628 .00000951 00000+0 23908-3 0 9993 2 41180 47.0011 65.2230 0001204 203.6517 156.4313 14.58505099532018 ORBCOMM FM105 1 41181U 15081C 25348.30585873 .00000464 00000+0 17504-3 0 9994 2 41181 47.0013 87.8225 0001031 31.0615 329.0326 14.45406318526807 ORBCOMM FM110 1 41182U 15081D 25348.17426265 .00001185 00000+0 28857-3 0 9993 2 41182 47.0003 156.0433 0002744 291.7465 68.3128 14.58583368530619 ORBCOMM FM118 1 41183U 15081E 25348.20873810 .00000957 00000+0 24004-3 0 9996 2 41183 47.0024 156.1781 0003205 256.6001 103.4528 14.58576984530722 ORBCOMM FM112 1 41184U 15081F 25348.21143635 .00001039 00000+0 25749-3 0 9992 2 41184 46.9998 64.7009 0000630 84.5991 275.4966 14.58580704531949 ORBCOMM FM113 1 41185U 15081G 25348.25719617 .00001224 00000+0 29690-3 0 9991 2 41185 47.0015 64.8404 0000520 124.3126 235.7809 14.58576502531938 ORBCOMM FM115 1 41186U 15081H 25348.17793981 .00001077 00000+0 24247-3 0 9998 2 41186 46.9986 263.2780 0000755 214.6194 145.4645 14.62924618534123 ORBCOMM FM108 1 41187U 15081J 25348.01426371 .00001354 00000+0 32459-3 0 9990 2 41187 47.0061 337.4962 0001885 40.0407 320.0617 14.58558182533043 ORBCOMM FM117 1 41188U 15081K 25348.32258264 .00001313 00000+0 31580-3 0 9998 2 41188 47.0024 334.7374 0002136 54.0168 306.0916 14.58584881533130 ORBCOMM FM116 1 41189U 15081L 25348.23440235 .00001366 00000+0 32710-3 0 9994 2 41189 47.0030 64.9244 0002575 270.0451 90.0139 14.58577408531938